Location: Blériot-Plage
(50.9575°N, 1.8224°E)
Time: 20:24:12
(UTC+00:00)

RESURS DK-1 - Pass Details

Date: 15 May 2026
Orbit: 522 x 531 km, 69.9° (Epoch: 6 June)

Event Time Altitude Azimuth Distance (km) Brightness Sun altitude
Rises 23:50:36 0° 316° (NW) 2,683 6.5 -20.0°
Reaches altitude 10° 23:53:15 10° 299° (WNW) 1,788 5.3 -20.0°
Enters shadow 23:55:55 19° 257° (WSW) 1,320 4.1 -20.0°
